Audubon, IA

3:01 AM CST on January 19, 2017 (GMT -0600)
Audubon County

Weather History for KADU - February, 2013

Change the Weather History Date:

Sunday, February 3, 2013

  Actual Average Record
Temperature  
Mean Temperature 26 °F -  
Max Temperature 35 °F 29 °F 51 °F (2005)
Min Temperature 17 °F 10 °F -18 °F (1989)
Degree Days  
Heating Degree Days 39    
Moisture  
Dew Point 20 °F    
Average Humidity 74    
Maximum Humidity 86    
Minimum Humidity 60    
Precipitation  
Precipitation 0.00 in - - ()
Sea Level Pressure  
Sea Level Pressure 30.02 in    
Wind  
Wind Speed 12 mph (WSW)    
Max Wind Speed 18 mph    
Max Gust Speed 31 mph    
Visibility 10 miles    
Events      
Averages and records for this station are not official NWS values.
T = Trace of Precipitation, MM = Missing Value Source: NWS Daily Summary

Daily Weather History Graph

Daily Weather History Graph

Search for Another Location

Airport or City:

Trip Planner

Search our weather history database for the weather conditions in past years. The results will help you decide how hot, cold, wet, or windy it might be!

Date:

Astronomy

Feb. 03, 2013 Rise Set
Actual Time 7:29 AM CST 5:38 PM CST
Civil Twilight 7:00 AM CST 6:07 PM CST
Nautical Twilight 6:27 AM CST 6:40 PM CST
Astronomical Twilight 5:54 AM CST 7:13 PM CST
Moon 12:58 AM CST (2/3) 11:15 AM CST (2/3)
Length of Visible Light 11h 07m
Length of Day
10h 08m
Waning Gibbous, 48% of the Moon is Illuminated
Feb 3
Waning Gibbous
Feb 10
New
Feb 17
First Quarter
Feb 25
Full
Mar 4
Last Quarter

Hourly Weather History & Observations

Time (CST) Temp. Windchill Dew Point Humidity Pressure Visibility Wind Dir Wind Speed Gust Speed Precip Events Conditions
12:15 AM 26.6 °F 13.4 °F 21.2 °F 80% 30.06 in 4.0 mi NW 18.4 mph 31.1 mph N/A   Scattered Clouds
12:35 AM 26.6 °F 14.7 °F 19.4 °F 74% 30.07 in 10.0 mi NW 15.0 mph 26.5 mph N/A   Clear
12:55 AM 24.8 °F 12.9 °F 19.4 °F 80% 30.08 in 10.0 mi NW 13.8 mph 21.9 mph N/A   Clear
1:15 AM 24.8 °F 14.0 °F 19.4 °F 80% 30.09 in 10.0 mi WNW 11.5 mph 20.7 mph N/A   Clear
1:35 AM 24.8 °F 12.9 °F 17.6 °F 74% 30.10 in 10.0 mi NW 13.8 mph 25.3 mph N/A   Clear
1:55 AM 24.8 °F 13.4 °F 17.6 °F 74% 30.10 in 10.0 mi NW 12.7 mph 19.6 mph N/A   Clear
2:15 AM 23.0 °F 11.1 °F 15.8 °F 74% 30.11 in 10.0 mi NW 12.7 mph 21.9 mph N/A   Clear
2:35 AM 23.0 °F 11.1 °F 15.8 °F 74% 30.12 in 10.0 mi NW 12.7 mph 18.4 mph N/A   Clear
2:55 AM 21.2 °F 7.3 °F 15.8 °F 80% 30.13 in 10.0 mi WNW 16.1 mph 23.0 mph N/A   Clear
3:15 AM 21.2 °F 7.3 °F 17.6 °F 86% 30.12 in 10.0 mi NW 16.1 mph 26.5 mph N/A   Clear
3:55 AM 21.2 °F 8.3 °F 15.8 °F 80% 30.12 in 10.0 mi NW 13.8 mph 21.9 mph N/A   Clear
4:15 AM 19.4 °F 6.0 °F 14.0 °F 80% 30.13 in 10.0 mi NW 13.8 mph 19.6 mph N/A   Clear
4:35 AM 19.4 °F 6.6 °F 14.0 °F 80% 30.14 in 10.0 mi NW 12.7 mph 18.4 mph N/A   Clear
4:55 AM 19.4 °F 9.5 °F 12.2 °F 74% 30.14 in 10.0 mi NW 8.1 mph 17.3 mph N/A   Clear
5:15 AM 17.6 °F 6.4 °F 12.2 °F 79% 30.14 in 10.0 mi NW 9.2 mph - N/A   Clear
5:35 AM 17.6 °F 8.2 °F 12.2 °F 79% 30.15 in 10.0 mi NW 6.9 mph - N/A   Clear
6:15 AM 17.6 °F 4.3 °F 12.2 °F 79% 30.16 in 10.0 mi WNW 12.7 mph 17.3 mph N/A   Clear
6:35 AM 17.6 °F 6.4 °F 12.2 °F 79% 30.16 in 10.0 mi WNW 9.2 mph 18.4 mph N/A   Clear
6:55 AM 17.6 °F 7.3 °F 12.2 °F 79% 30.16 in 10.0 mi WNW 8.1 mph 17.3 mph N/A   Clear
7:15 AM 17.6 °F 8.2 °F 12.2 °F 79% 30.15 in 10.0 mi WNW 6.9 mph 16.1 mph N/A   Clear
7:35 AM 17.6 °F 10.7 °F 10.4 °F 73% 30.15 in 10.0 mi NW 4.6 mph - N/A   Clear
7:55 AM 17.6 °F 9.3 °F 12.2 °F 79% 30.15 in 10.0 mi West 5.8 mph - N/A   Clear
8:15 AM 17.6 °F 9.3 °F 12.2 °F 79% 30.14 in 10.0 mi West 5.8 mph - N/A   Clear
8:35 AM 19.4 °F 14.3 °F 12.2 °F 74% 30.15 in 10.0 mi West 3.5 mph - N/A   Clear
8:55 AM 19.4 °F 9.5 °F 14.0 °F 80% 30.15 in 10.0 mi West 8.1 mph - N/A   Clear
9:15 AM 21.2 °F 14.9 °F 15.8 °F 80% 30.16 in 10.0 mi West 4.6 mph - N/A   Scattered Clouds
9:35 AM 21.2 °F 12.6 °F 15.8 °F 80% 30.16 in 10.0 mi West 6.9 mph - N/A   Overcast
9:55 AM 23.0 °F 14.7 °F 15.8 °F 74% 30.15 in 10.0 mi West 6.9 mph - N/A   Overcast
10:15 AM 23.0 °F 10.6 °F 17.6 °F 80% 30.12 in 10.0 mi WSW 13.8 mph - N/A   Scattered Clouds
10:35 AM 24.8 °F 13.4 °F 17.6 °F 74% 30.13 in 10.0 mi WSW 12.7 mph - N/A   Clear
10:55 AM 24.8 °F 14.0 °F 17.6 °F 74% 30.13 in 10.0 mi WSW 11.5 mph - N/A   Clear
11:15 AM 26.6 °F 17.5 °F 17.6 °F 69% 30.13 in 10.0 mi WSW 9.2 mph - N/A   Scattered Clouds
11:35 AM 26.6 °F 19.1 °F 17.6 °F 69% 30.12 in 10.0 mi WSW 6.9 mph - N/A   Scattered Clouds
11:55 AM 28.4 °F 21.2 °F 17.6 °F 64% 30.11 in 10.0 mi SSW 6.9 mph - N/A   Clear
12:15 PM 28.4 °F 20.4 °F 17.6 °F 64% 30.10 in 10.0 mi SSW 8.1 mph - N/A   Clear
12:35 PM 28.4 °F 19.1 °F 19.4 °F 69% 30.08 in 10.0 mi South 10.4 mph - N/A   Clear
12:55 PM 30.2 °F 21.3 °F 19.4 °F 64% 30.07 in 10.0 mi South 10.4 mph - N/A   Clear
1:15 PM 30.2 °F 21.9 °F 21.2 °F 69% 30.05 in 10.0 mi SSW 9.2 mph - N/A   Clear
1:35 PM 32.0 °F 23.0 °F 21.2 °F 64% 30.04 in 10.0 mi SSW 11.5 mph - N/A   Clear
1:55 PM 32.0 °F 22.1 °F 21.2 °F 64% 30.02 in 10.0 mi SSW 13.8 mph - N/A   Clear
2:15 PM 33.8 °F 25.3 °F 21.2 °F 60% 30.01 in 10.0 mi SSW 11.5 mph - N/A   Clear
2:35 PM 33.8 °F 23.9 °F 21.2 °F 60% 29.99 in 10.0 mi South 15.0 mph 20.7 mph N/A   Clear
2:55 PM 33.8 °F 23.5 °F 21.2 °F 60% 29.98 in 10.0 mi SSW 16.1 mph 24.2 mph N/A   Clear
3:15 PM 33.8 °F 23.2 °F 21.2 °F 60% 29.97 in 10.0 mi SSW 17.3 mph 23.0 mph N/A   Clear
3:35 PM 33.8 °F 24.3 °F 21.2 °F 60% 29.96 in 10.0 mi SSW 13.8 mph 18.4 mph N/A   Clear
3:55 PM 33.8 °F 23.2 °F 23.0 °F 65% 29.95 in 10.0 mi SSW 17.3 mph 23.0 mph N/A   Clear
4:15 PM 33.8 °F 23.5 °F 23.0 °F 65% 29.94 in 10.0 mi SSW 16.1 mph 24.2 mph N/A   Clear
4:35 PM 33.8 °F 23.9 °F 23.0 °F 65% 29.92 in 10.0 mi SSW 15.0 mph - N/A   Clear
4:55 PM 33.8 °F 25.8 °F 23.0 °F 65% 29.92 in 10.0 mi SSW 10.4 mph - N/A   Clear
5:15 PM 32.0 °F 24.2 °F 24.8 °F 75% 29.91 in 10.0 mi SSW 9.2 mph - N/A   Clear
5:35 PM 32.0 °F 24.2 °F 24.8 °F 75% 29.90 in 10.0 mi South 9.2 mph - N/A   Clear
5:55 PM 32.0 °F 23.6 °F 24.8 °F 75% 29.90 in 10.0 mi South 10.4 mph - N/A   Clear
6:15 PM 30.2 °F 20.8 °F 24.8 °F 80% 29.89 in 10.0 mi South 11.5 mph - N/A   Clear
6:35 PM 30.2 °F 21.9 °F 24.8 °F 80% 29.89 in 10.0 mi South 9.2 mph - N/A   Clear
6:55 PM 30.2 °F 20.8 °F 24.8 °F 80% 29.89 in 10.0 mi South 11.5 mph - N/A   Clear
7:15 PM 30.2 °F 21.9 °F 24.8 °F 80% 29.88 in 10.0 mi South 9.2 mph - N/A   Clear
7:55 PM 32.0 °F 21.6 °F 26.6 °F 80% 29.86 in 10.0 mi South 15.0 mph - N/A   Clear
8:15 PM 32.0 °F 22.1 °F 26.6 °F 80% 29.85 in 10.0 mi South 13.8 mph - N/A   Clear
8:35 PM 33.8 °F 24.8 °F 26.6 °F 75% 29.84 in 10.0 mi South 12.7 mph - N/A   Clear
8:55 PM 33.8 °F 24.8 °F 26.6 °F 75% 29.84 in 10.0 mi South 12.7 mph - N/A   Clear
9:15 PM 32.0 °F 22.5 °F 26.6 °F 80% 29.82 in 10.0 mi South 12.7 mph - N/A   Clear
9:35 PM 33.8 °F 25.8 °F 26.6 °F 75% 29.82 in 10.0 mi South 10.4 mph 17.3 mph N/A   Clear
9:55 PM 33.8 °F 24.8 °F 26.6 °F 75% 29.81 in 10.0 mi South 12.7 mph 19.6 mph N/A   Clear
10:15 PM 33.8 °F 23.9 °F 26.6 °F 75% 29.80 in 10.0 mi SSW 15.0 mph - N/A   Clear
10:35 PM 33.8 °F 25.3 °F 26.6 °F 75% 29.79 in 10.0 mi SSW 11.5 mph - N/A   Clear
10:55 PM 33.8 °F 24.3 °F 26.6 °F 75% 29.78 in 10.0 mi SSW 13.8 mph 18.4 mph N/A   Clear
11:15 PM 33.8 °F 25.3 °F 26.6 °F 75% 29.78 in 10.0 mi SSW 11.5 mph 16.1 mph N/A   Clear
11:35 PM 35.6 °F 26.2 °F 26.6 °F 70% 29.77 in 10.0 mi SSW 15.0 mph 18.4 mph N/A   Clear
11:55 PM 35.6 °F 27.5 °F 26.6 °F 70% 29.77 in 10.0 mi SSW 11.5 mph 18.4 mph N/A   Clear